Location: Blazny
(46.0612°N, 84.4033°W)
Time: 20:16:53
(UTC-04:00)

Envisat - Pass Details

Date: 20 September 2024
Orbit: 762 x 764 km, 98.3° (Epoch: 11 October)

Event Time Altitude Azimuth Distance (km) Brightness Sun altitude
Rises 03:39:13 0° 27° (NNE) 3,236 7.2 -35.3°
Reaches altitude 10° 03:42:10 10° 45° (NE) 2,304 6.3 -34.9°
Maximum altitude 03:45:48 20° 91° (E) 1,730 5.1 -34.5°
Enters shadow 03:46:21 19° 100° (E) 1,744 5.1 -34.4°
